Location: Unspecified
(0.0000°N, 0.0000°E)
Time: 09:08:38
(UTC+00:00)

Vanguard 2 - Pass Details

Date: 29 October 2021
Orbit: 554 x 2936 km, 32.9° (Epoch: 06 December)

Event Time Altitude Azimuth Distance (km) Brightness Sun altitude
Rises 07:24:29 0° 316° (NW) 3,364 10.3 24.4°
Reaches altitude 10° 07:27:27 10° 324° (NW) 2,180 9.5 25.2°
Maximum altitude 07:31:51 37° 32° (NNE) 929 8.4 26.2°
Drops below altitude 10° 07:35:31 10° 101° (E) 1,822 11.3 27.1°
Sets 07:37:47 0° 110° (ESE) 2,728 11.6 27.7°
